Lid_Strength_Index
7 7 7 7 8 8 8 8 8 8 8 7 6 6 5 5 6 6 5 5 6 6 7 7 7 7 7 8 7 7 7 7 8 7 5 5 5 6 5 5 4 5 2
8 8 8 8 8 8 9 9 9 7 7 7 6 5 5 5 5 5 5 6 7 7 7 8 8 7 8 8 8 8 8 7 8 9 8 7 7 6 6 6 4 4 5
10 9 9 9 8 8 9 9 8 8 8 6 5 5 5 5 4 5 6 7 7 7 7 8 8 8 9 9 9 8 8 7 7 8 8 7 7 7 7 7 6 6 5
10 10 9 9 8 9 9 9 8 7 6 6 4 4 4 4 5 6 7 7 7 7 7 7 8 8 9 9 8 8 7 7 6 6 7 8 7 7 7 8 9 8 8
11 10 9 8 8 8 8 8 7 6 5 3 5 4 5 5 6 7 6 7 8 8 8 7 7 7 5 7 7 8 8 8 6 6 6 7 8 9 9 8 9 10 9
11 9 9 8 8 8 8 7 6 5 4 5 4 6 7 5 4 4 5 7 7 8 9 8 8 7 7 7 6 6 6 7 7 7 7 7 7 9 9 9 9 11 12
11 9 9 8 8 8 7 6 6 6 3 5 7 7 7 7 4 4 5 7 8 9 9 9 9 8 8 8 7 6 6 5 5 6 7 7 7 7 8 9 10 11 11
11 10 9 9 9 8 7 6 6 5 6 7 7 7 7 7 6 6 7 9 10 9 9 9 9 9 8 8 7 7 6 6 5 5 5 6 6 6 7 8 8 9 9
10 10 9 9 8 7 7 6 6 6 7 7 7 8 9 9 7 7 8 10 10 10 9 9 9 9 8 6 7 7 7 6 5 4 4 4 4 4 4 7 7 8 10
10 9 9 8 8 8 8 7 7 7 6 7 8 9 8 10 8 8 8 11 14 10 10 9 9 8 7 7 8 8 9 7 6 7 7 6 6 6 6 7 9 10 11
9 9 8 8 8 8 8 8 8 8 8 9 10 10 9 9 10 8 8 12 11 10 10 11 10 8 8 7 7 8 8 6 6 6 7 8 8 8 7 7 8 10 11
9 9 8 8 8 7 8 8 8 8 9 10 17 14 11 11 9 9 8 8 8 10 11 10 10 9 9 8 9 8 8 8 8 8 8 8 8 8 7 7 7 8 8
9 8 8 8 8 8 9 9 9 9 11 11 10 14 12 10 12 9 8 8 9 12 11 10 10 10 10 10 9 9 10 11 10 11 10 10 9 8 7 7 7 7 7
9 7 7 7 7 8 8 8 9 11 12 10 12 13 14 13 13 13 10 13 10 11 12 13 12 11 12 12 12 11 11 11 12 12 11 10 9 9 9 8 9 8 9
8 7 7 7 8 8 8 8 8 8 9 11 12 13 20 20 14 9 10 12 15 13 16 17 15 14 14 14 14 13 13 12 12 12 13 12 11 10 10 9 9 9 11
7 6 7 7 8 8 8 8 6 6 7 6 6 13 16 11 8 7 8 9 9 10 16 20 21 19 16 14 15 15 15 15 14 13 13 13 13 12 11 10 10 11 11
7 6 7 7 8 9 9 9 12 9 6 6 6 6 7 8 7 8 9 10 10 12 19 20 23 21 18 15 15 15 16 16 15 15 15 15 14 13 12 12 12 12 12
6 7 6 7 7 7 8 11 12 12 15 14 9 7 6 7 8 8 9 11 17 16 18 20 21 20 19 15 15 16 17 18 18 18 16 16 16 15 14 13 13 15 14
6 6 7 7 9 9 10 13 11 10 11 14 15 12 12 7 8 8 10 18 19 19 18 17 21 19 19 19 20 18 20 20 21 21 19 18 17 16 15 14 14 15 15
5 6 7 8 9 8 8 10 10 11 10 12 15 15 16 16 19 21 22 24 25 20 20 18 17 19 21 21 24 24 20 20 19 20 21 21 20 18 16 16 15 18 17
5 6 7 7 9 10 11 11 10 11 9 10 14 17 15 15 16 19 18 20 19 19 20 19 20 22 22 23 20 23 23 24 20 20 20 20 21 21 18 18 18 17 17
5 6 7 7 7 12 12 9 9 11 11 13 11 14 16 20 18 17 17 16 17 17 17 19 18 19 19 19 20 25 24 25 22 20 21 20 20 19 19 20 21 21 19
6 6 9 11 11 13 15 12 11 11 10 12 11 12 17 16 14 15 15 15 18 19 18 19 20 19 21 22 24 21 22 22 22 21 20 20 19 19 21 22 21 21 22
6 8 10 12 17 15 16 14 14 13 9 8 9 14 15 15 15 15 16 16 19 20 21 19 18 17 18 22 23 22 19 22 22 20 20 19 19 18 20 20 21 23 23
6 8 11 11 9 10 13 14 13 13 9 8 9 11 12 14 16 15 15 17 18 20 18 19 19 17 17 18 19 19 20 18 21 21 20 18 19 20 20 19 21 20 22
5 6 7 6 8 9 10 10 10 10 9 9 9 8 10 12 12 13 15 17 18 18 17 20 19 17 17 18 18 18 19 19 20 20 21 18 18 18 19 20 20 20 19